Radiation Dose at Monitoring Post of Fukushima Daini Nuclear Power Station
Date,Time,MP-1(microSv/h),MP-2(microSv/h),MP-3(microSv/h),MP-4(microSv/h),MP-5(microSv/h),MP-6(microSv/h),MP-7(microSv/h),Wind Direction,Wind Velocity(m/s),Rain
2019/01/17,00:00,0.217,0.197,0.317,0.299,0.280,0.159,0.097,west-northwest,7.3,No
2019/01/17,00:10,0.218,0.197,0.320,0.299,0.281,0.159,0.096,northwest,5.8,No
2019/01/17,00:20,0.218,0.197,0.320,0.300,0.280,0.159,0.096,north-northwest,3.3,No
2019/01/17,00:30,0.218,0.197,0.321,0.299,0.281,0.159,0.095,north-northwest,4.7,No
2019/01/17,00:40,0.218,0.196,0.318,0.300,0.279,0.158,0.096,north-northwest,5.1,No
2019/01/17,00:50,0.218,0.197,0.318,0.299,0.282,0.159,0.096,northwest,4.7,No
2019/01/17,01:00,0.218,0.196,0.319,0.298,0.280,0.159,0.096,north-northwest,3.3,No
2019/01/17,01:10,0.218,0.197,0.320,0.299,0.281,0.159,0.096,northwest,3.7,No
2019/01/17,01:20,0.219,0.198,0.318,0.299,0.281,0.159,0.098,north-northwest,4.2,No
2019/01/17,01:30,0.218,0.197,0.320,0.299,0.280,0.159,0.096,north-northwest,5.3,No
2019/01/17,01:40,0.218,0.197,0.318,0.299,0.280,0.159,0.097,northwest,5.1,No
2019/01/17,01:50,0.218,0.197,0.319,0.300,0.281,0.158,0.096,north-northwest,2.7,No
2019/01/17,02:00,0.217,0.197,0.319,0.299,0.280,0.158,0.097,north,2.3,No
2019/01/17,02:10,0.218,0.197,0.319,0.299,0.280,0.160,0.096,north-northwest,2.6,No
2019/01/17,02:20,0.217,0.197,0.321,0.301,0.281,0.158,0.096,north,3.0,No
2019/01/17,02:30,0.218,0.197,0.321,0.298,0.281,0.159,0.097,north-northwest,3.1,No
2019/01/17,02:40,0.218,0.197,0.321,0.298,0.281,0.158,0.095,north-northwest,2.7,No
2019/01/17,02:50,0.217,0.197,0.319,0.298,0.281,0.159,0.096,north-northwest,3.0,No
2019/01/17,03:00,0.219,0.197,0.320,0.299,0.280,0.159,0.096,north-northwest,2.9,No
2019/01/17,03:10,0.218,0.197,0.320,0.299,0.280,0.159,0.096,north,2.2,No
2019/01/17,03:20,0.219,0.198,0.320,0.300,0.280,0.158,0.096,north-northwest,1.7,No
2019/01/17,03:30,0.218,0.197,0.320,0.300,0.280,0.159,0.097,northwest,2.1,No
2019/01/17,03:40,0.218,0.197,0.321,0.300,0.282,0.159,0.097,northwest,1.7,No
2019/01/17,03:50,0.217,0.197,0.320,0.299,0.281,0.158,0.096,northwest,1.2,No
2019/01/17,04:00,0.218,0.196,0.321,0.298,0.280,0.159,0.096,northwest,1.3,No
2019/01/17,04:10,0.217,0.197,0.320,0.299,0.279,0.158,0.096,northwest,1.1,No
2019/01/17,04:20,0.219,0.196,0.319,0.299,0.281,0.158,0.097,west-northwest,0.9,No
2019/01/17,04:30,0.218,0.197,0.320,0.299,0.281,0.159,0.097,west-northwest,2.8,No
2019/01/17,04:40,0.219,0.197,0.320,0.299,0.279,0.159,0.096,west,4.6,No
2019/01/17,04:50,0.218,0.197,0.319,0.298,0.280,0.158,0.097,west-northwest,4.7,No
2019/01/17,05:00,0.218,0.196,0.320,0.299,0.282,0.158,0.096,northwest,2.7,No
2019/01/17,05:10,0.218,0.197,0.319,0.298,0.278,0.158,0.097,northwest,2.4,No
2019/01/17,05:20,0.218,0.198,0.320,0.299,0.281,0.159,0.096,northwest,2.2,No
2019/01/17,05:30,0.218,0.197,0.319,0.298,0.280,0.158,0.097,northwest,3.0,No
2019/01/17,05:40,0.218,0.196,0.321,0.299,0.281,0.159,0.097,northwest,2.6,No
2019/01/17,05:50,0.218,0.198,0.320,0.298,0.279,0.158,0.096,-,CALM,No
2019/01/17,06:00,0.218,0.197,0.320,0.299,0.280,0.159,0.096,south-southeast,3.0,No
2019/01/17,06:10,0.217,0.196,0.320,0.298,0.280,0.159,0.097,south-southwest,4.4,No
2019/01/17,06:20,0.217,0.197,0.320,0.298,0.281,0.158,0.097,south,4.5,No
2019/01/17,06:30,0.218,0.197,0.320,0.299,0.282,0.159,0.097,south-southwest,6.5,No
2019/01/17,06:40,0.218,0.197,0.320,0.300,0.279,0.159,0.097,south-southwest,7.6,No
2019/01/17,06:50,0.218,0.198,0.319,0.301,0.280,0.159,0.097,south,7.3,No
2019/01/17,07:00,0.219,0.196,0.320,0.299,0.280,0.159,0.097,south,8.4,No
2019/01/17,07:10,0.218,0.196,0.321,0.300,0.280,0.160,0.096,south,8.1,No
2019/01/17,07:20,0.217,0.197,0.318,0.299,0.281,0.159,0.096,south,8.2,No
2019/01/17,07:30,0.217,0.198,0.320,0.300,0.281,0.158,0.097,south,8.6,No
2019/01/17,07:40,0.218,0.196,0.320,0.299,0.281,0.159,0.097,south,8.2,No
2019/01/17,07:50,0.218,0.197,0.320,0.301,0.280,0.159,0.096,south,8.9,No
2019/01/17,08:00,0.218,0.197,0.320,0.300,0.281,0.159,0.097,south-southwest,10.4,No
2019/01/17,08:10,0.218,0.197,0.319,0.299,0.280,0.159,0.097,south,10.6,No
2019/01/17,08:20,0.218,0.198,0.320,0.299,0.281,0.159,0.096,south,9.5,No
2019/01/17,08:30,0.218,0.197,0.320,0.301,0.280,0.158,0.096,south-southwest,10.9,No
2019/01/17,08:40,0.219,0.198,0.321,0.300,0.280,0.159,0.096,south-southwest,9.7,No
2019/01/17,08:50,0.217,0.196,0.319,0.300,0.280,0.160,0.097,south-southwest,8.4,No
2019/01/17,09:00,0.218,0.196,0.321,0.299,0.282,0.159,0.096,south-southwest,7.6,No
2019/01/17,09:10,0.218,0.197,0.319,0.298,0.282,0.158,0.097,south-southwest,6.0,No
2019/01/17,09:20,0.217,0.198,0.318,0.300,0.282,0.159,0.096,south,5.2,No
2019/01/17,09:30,0.217,0.196,0.321,0.300,0.280,0.158,0.096,south,7.0,No
2019/01/17,09:40,0.218,0.197,0.318,0.299,0.282,0.159,0.096,south,6.7,No
2019/01/17,09:50,0.218,0.197,0.319,0.300,0.280,0.159,0.097,south-southeast,7.3,No
2019/01/17,10:00,0.218,0.196,0.319,0.298,0.280,0.159,0.096,south,7.3,No
2019/01/17,10:10,0.218,0.196,0.320,0.300,0.281,0.160,0.097,south,6.5,No
2019/01/17,10:20,0.218,0.196,0.321,0.299,0.279,0.160,0.097,south-southeast,6.7,No
2019/01/17,10:30,0.216,0.195,0.320,0.298,0.281,0.160,0.096,south-southeast,7.0,No
2019/01/17,10:40,0.217,0.197,0.320,0.301,0.281,0.161,0.097,south-southeast,5.9,No
2019/01/17,10:50,0.219,0.198,0.320,0.299,0.280,0.159,0.097,south-southeast,6.5,No
2019/01/17,11:00,0.218,0.197,0.319,0.299,0.281,0.159,0.096,south-southeast,6.1,No
2019/01/17,11:10,0.218,0.198,0.318,0.301,0.282,0.159,0.097,southeast,6.4,No
2019/01/17,11:20,0.218,0.198,0.319,0.299,0.280,0.159,0.096,west-southwest,6.8,No
2019/01/17,11:30,0.217,0.197,0.319,0.297,0.282,0.159,0.096,west-southwest,5.2,No
2019/01/17,11:40,0.219,0.197,0.319,0.300,0.278,0.159,0.096,southwest,9.5,No
2019/01/17,11:50,0.216,0.196,0.319,0.298,0.282,0.159,0.095,west-southwest,9.8,No
2019/01/17,12:00,0.216,0.196,0.316,0.298,0.279,0.159,0.095,west-southwest,9.0,No
2019/01/17,12:10,0.217,0.197,0.320,0.297,0.282,0.158,0.096,west-southwest,5.7,No
2019/01/17,12:20,0.217,0.196,0.317,0.300,0.279,0.158,0.096,west,4.5,No
2019/01/17,12:30,0.217,0.197,0.318,0.296,0.280,0.160,0.096,west,7.8,No
2019/01/17,12:40,0.216,0.196,0.319,0.298,0.278,0.159,0.096,west-southwest,6.1,No
2019/01/17,12:50,0.217,0.195,0.318,0.295,0.281,0.158,0.096,west-southwest,7.0,No
2019/01/17,13:00,0.216,0.195,0.319,0.298,0.279,0.159,0.096,west-southwest,6.7,No
2019/01/17,13:10,0.219,0.196,0.318,0.297,0.282,0.158,0.096,west,7.0,No
2019/01/17,13:20,0.216,0.197,0.321,0.298,0.281,0.160,0.096,west-southwest,7.0,No
2019/01/17,13:30,0.218,0.197,0.318,0.298,0.283,0.159,0.096,west,7.0,No
2019/01/17,13:40,0.216,0.197,0.318,0.298,0.281,0.157,0.095,west,8.4,No
2019/01/17,13:50,0.217,0.196,0.321,0.298,0.281,0.159,0.096,west-southwest,7.1,No
2019/01/17,14:00,0.219,0.197,0.318,0.300,0.283,0.159,0.096,west-southwest,5.3,No
2019/01/17,14:10,0.218,0.197,0.321,0.298,0.281,0.158,0.096,west-southwest,5.9,No
2019/01/17,14:20,0.218,0.196,0.321,0.301,0.283,0.160,0.096,west,6.7,No
2019/01/17,14:30,0.217,0.197,0.318,0.298,0.278,0.159,0.095,west,8.1,No
2019/01/17,14:40,0.217,0.195,0.320,0.299,0.281,0.159,0.096,west,7.4,No
2019/01/17,14:50,0.217,0.196,0.321,0.301,0.279,0.158,0.097,west-northwest,5.3,No
2019/01/17,15:00,0.218,0.197,0.318,0.299,0.279,0.157,0.096,west,6.7,No
2019/01/17,15:10,0.218,0.197,0.320,0.300,0.282,0.158,0.096,west-northwest,5.1,No
2019/01/17,15:20,0.218,0.198,0.320,0.299,0.281,0.158,0.095,west,4.8,No
2019/01/17,15:30,0.218,0.197,0.319,0.298,0.281,0.159,0.096,west,6.6,No
2019/01/17,15:40,0.217,0.196,0.321,0.300,0.283,0.160,0.097,west,7.8,No
2019/01/17,15:50,0.218,0.196,0.320,0.299,0.281,0.158,0.095,west-northwest,12.2,No
2019/01/17,16:00,0.218,0.196,0.319,0.298,0.281,0.158,0.096,west-northwest,11.2,No
2019/01/17,16:10,0.218,0.197,0.319,0.299,0.282,0.159,0.095,west-northwest,6.7,No
2019/01/17,16:20,0.217,0.197,0.320,0.299,0.281,0.158,0.096,west-northwest,4.8,No
2019/01/17,16:30,0.217,0.198,0.321,0.300,0.281,0.160,0.097,west,5.1,No
2019/01/17,16:40,0.217,0.197,0.319,0.299,0.283,0.158,0.095,west-northwest,5.5,No
2019/01/17,16:50,0.217,0.197,0.320,0.299,0.282,0.159,0.097,northwest,6.4,No
2019/01/17,17:00,0.218,0.196,0.320,0.300,0.281,0.159,0.096,west-northwest,7.0,No
2019/01/17,17:10,0.219,0.197,0.320,0.299,0.281,0.160,0.096,west-northwest,7.9,No
2019/01/17,17:20,0.218,0.197,0.319,0.299,0.281,0.159,0.096,west,7.3,No
2019/01/17,17:30,0.218,0.196,0.319,0.300,0.280,0.159,0.096,west,7.0,No
2019/01/17,17:40,0.217,0.196,0.320,0.299,0.280,0.159,0.096,west-northwest,5.6,No
2019/01/17,17:50,0.218,0.198,0.318,0.299,0.282,0.158,0.097,west-northwest,7.8,No
2019/01/17,18:00,0.219,0.197,0.319,0.301,0.280,0.159,0.095,west,9.0,No
2019/01/17,18:10,0.217,0.197,0.320,0.298,0.281,0.159,0.096,west,8.2,No
2019/01/17,18:20,0.219,0.197,0.321,0.300,0.280,0.159,0.096,west,8.4,No
2019/01/17,18:30,0.219,0.197,0.320,0.299,0.280,0.159,0.096,west-northwest,9.5,No
2019/01/17,18:40,0.219,0.196,0.320,0.300,0.281,0.159,0.096,west,10.9,No
2019/01/17,18:50,0.217,0.196,0.321,0.299,0.281,0.159,0.096,west,11.7,No
2019/01/17,19:00,0.218,0.197,0.321,0.299,0.280,0.159,0.097,west,11.5,No
2019/01/17,19:10,0.218,0.197,0.321,0.300,0.280,0.160,0.096,west,10.7,No
2019/01/17,19:20,0.218,0.198,0.320,0.299,0.283,0.159,0.096,west,11.7,No
2019/01/17,19:30,0.218,0.197,0.321,0.300,0.282,0.160,0.096,west-northwest,11.7,No
2019/01/17,19:40,0.217,0.197,0.321,0.299,0.281,0.158,0.096,west,10.6,No
2019/01/17,19:50,0.218,0.198,0.321,0.300,0.281,0.159,0.097,west-northwest,12.0,No
2019/01/17,20:00,0.218,0.197,0.320,0.298,0.283,0.159,0.096,west,12.0,No
2019/01/17,20:10,0.217,0.197,0.320,0.300,0.281,0.160,0.096,west,13.4,No
2019/01/17,20:20,0.218,0.196,0.321,0.299,0.282,0.159,0.096,west,12.3,No
2019/01/17,20:30,0.217,0.197,0.320,0.299,0.281,0.159,0.096,west,11.5,No
2019/01/17,20:40,0.219,0.197,0.320,0.300,0.281,0.159,0.096,west,9.8,No
2019/01/17,20:50,0.218,0.197,0.320,0.300,0.282,0.159,0.096,west,10.6,No
2019/01/17,21:00,0.218,0.196,0.320,0.301,0.281,0.159,0.097,west,11.8,No
2019/01/17,21:10,0.218,0.197,0.320,0.300,0.282,0.159,0.097,west,10.4,No
2019/01/17,21:20,0.218,0.197,0.321,0.300,0.282,0.160,0.096,west,8.6,No
2019/01/17,21:30,0.218,0.198,0.322,0.299,0.281,0.159,0.096,west-northwest,8.1,No
2019/01/17,21:40,0.219,0.198,0.320,0.301,0.282,0.158,0.096,west-northwest,6.7,No
2019/01/17,21:50,0.218,0.197,0.321,0.299,0.282,0.158,0.097,west,10.9,No
2019/01/17,22:00,0.218,0.197,0.321,0.299,0.282,0.158,0.096,west-northwest,9.2,No
2019/01/17,22:10,0.219,0.197,0.320,0.298,0.281,0.159,0.096,west-northwest,10.1,No
2019/01/17,22:20,0.218,0.197,0.319,0.299,0.281,0.160,0.096,west-northwest,9.0,No
2019/01/17,22:30,0.219,0.196,0.319,0.301,0.282,0.158,0.096,west-northwest,9.6,No
2019/01/17,22:40,0.218,0.197,0.320,0.300,0.281,0.158,0.096,west-northwest,9.7,No
2019/01/17,22:50,0.218,0.197,0.321,0.299,0.281,0.159,0.096,west-northwest,10.6,No
2019/01/17,23:00,0.219,0.198,0.320,0.300,0.282,0.159,0.096,northwest,7.0,No
2019/01/17,23:10,0.218,0.197,0.320,0.299,0.282,0.159,0.095,north-northwest,6.2,No
2019/01/17,23:20,0.219,0.198,0.319,0.300,0.281,0.159,0.096,north-northwest,4.8,No
2019/01/17,23:30,0.218,0.198,0.320,0.299,0.282,0.158,0.096,north-northwest,5.4,No
2019/01/17,23:40,0.218,0.198,0.321,0.300,0.280,0.159,0.096,north-northwest,3.5,No
2019/01/17,23:50,0.219,0.198,0.320,0.299,0.281,0.159,0.097,north-northwest,2.8,No
